Regional & State Weather Roundups


513 
ASUS41 KLWX 270610
RWRLWX
REGIONAL WEATHER ROUNDUP
NATIONAL WEATHER SERVICE BALTIMORE MD/WASHINGTON DC
200 AM EDT FRI MAR 27 2015
Note: "FAIR" indicates few or no clouds below 12,000 feet
with no significant weather and/or obstructions to visibility.
 TC=TEMPERATURE CELSIUS
 * =Non NWS site. Station does not report precipitation (e.g. rain,
    snow, etc.), thunder, or fog.
DCZ001-MDZ009-015-VAZ040>042-051-053>054-270700-
WASHINGTON METRO
  
CITY           SKY/WX    TMP DP  RH WIND       PRES   REMARKS
WASHINGTON NAT LGT RAIN  51  44  77 N10       29.78R                  
DULLES         LGT RAIN  46  42  86 NW6       29.80R                  
ANDREWS AFB    HVY RAIN  48  46  95 N7        29.76R FOG              
FT BELVOIR     LGT RAIN  48  45  87 NW7       29.78S                  
QUANTICO       RAIN      48  44  86 NE10      29.79S FOG              
COLLEGE PARK*  CLOUDY    46  45  93 NW6       29.78S                  
LEESBURG*      RAIN      46  43  87 NW17G25   29.80R                  
MANASSAS*      CLOUDY    46  45  93 N10       29.78S                  
GAITHERSBURG*  CLOUDY    45  39  81 NW5       29.82R                  
$$
MDZ006>007-011-014-270700-
BALTIMORE METRO
  
CITY           SKY/WX    TMP DP  RH WIND       PRES   REMARKS
BWI AIRPORT    LGT RAIN  46  43  89 CALM      29.77R                  
MD SCIENCE CTR   N/A     48  42  80 MISG      29.77R                  
MARTIN STATE   RAIN      46  43  87 NW6       29.79R                  
ANNAPOLIS      LGT RAIN  46  43  89 NW7       29.76R FOG              
$$
MDZ012-015-019>023-270700-
MARYLAND EASTERN SHORE
  
CITY           SKY/WX    TMP DP  RH WIND       PRES   REMARKS
OCEAN CITY     CLOUDY    54  52  93 NE5       29.68F FOG              
SALISBURY      CLOUDY    57  53  86 NW13      29.70R                  
BAY BRIDGE AP* DRIZZLE   45  45 100 NW8       29.76F                  
CAMBRIDGE*     CLOUDY    52  46  82 NW13      29.73S                  
EASTON*        DRIZZLE   49  49 100 N12G18    29.79R                  
$$
MDZ017>025-270700-
SOUTHERN MARYLAND
  
CITY           SKY/WX    TMP DP  RH WIND       PRES   REMARKS
PATUXENT RIVER CLOUDY    50  47  89 N14       29.73S                  
ST INIGOES     CLOUDY    55  48  77 N9        29.72S                  
LEONARDTOWN*   CLOUDY    50  46  87 NW8G16    29.75S                  
$$
MDZ003>005-270700-
NORTH CENTRAL MARYLAND
  
CITY           SKY/WX    TMP DP  RH WIND       PRES   REMARKS
FREDERICK*     LGT RAIN  46  37  71 NW6       29.83R                  
HAGERSTOWN APT LGT RAIN  45  37  73 NW8       29.80R                  
WESTMINSTER*   RAIN      45  41  87 NW7       29.79R                  
$$
MDZ501>502-270700-
WESTERN MARYLAND
  
CITY           SKY/WX    TMP DP  RH WIND       PRES   REMARKS
OAKLAND*       CLOUDY    32 N/A N/A NW7       29.78R FOG              
CUMBERLAND*    CLOUDY    46  36  66 NW7         N/A                   
$$
VAZ025>031-270700-
SHENANDOAH VALLEY
  
CITY           SKY/WX    TMP DP  RH WIND       PRES   REMARKS
WINCHESTER*    CLOUDY    45  36  70 NW12      29.79F                  
FRONT ROYAL*   CLOUDY    46  37  71 NW8       29.79S                  
LURAY*         RAIN      48  41  76 N12G22    29.79S                  
NEW MARKET*    CLOUDY    46  37  69 NE8       29.78F                  
STAUNTON*      CLOUDY    46  42  86 NE8       29.78F                  
WAYNESBORO*    CLOUDY    44  42  93 N8        29.76S                  
$$
WVZ021-048>050-054>055-270700-
EASTERN WEST VIRGINIA PANHANDLE
  
CITY           SKY/WX    TMP DP  RH WIND       PRES   REMARKS
MARTINSBURG    LGT RAIN  46  38  73 NW5       29.81R                  
PETERSBURG*    CLOUDY    45  36  70 CALM      29.82F                  
$$
VAZ036>039-050-270700-
CENTRAL FOOTHILLS
  
CITY           SKY/WX    TMP DP  RH WIND       PRES   REMARKS
CHARLOTTESVILL RAIN      49  45  86 N8        29.75R FOG              
CULPEPER*      LGT RAIN  48  45  87 N7        29.78S                  
ORANGE*        RAIN      46  45  93 N10       29.79R                  
GORDONSVILLE*  CLOUDY    46  44  93 NE10      29.75R                  
WARRENTON*     RAIN      47  47 100 N6        29.78R                  
$$
VAZ055>057-270700-
NORTH AND CENTRAL PIEDMONT
  
CITY           SKY/WX    TMP DP  RH WIND       PRES   REMARKS
FREDERICKSBRG* DRIZZLE   49  47  95 N10G17    29.77R                  
STAFFORD*      HVY RAIN  46  50 100 N9        29.82R                  
$$
NCZ024-NYZ072-PAZ021-071-VAZ022-071-270700-
OTHER REGIONAL OBSERVATIONS
  
CITY           SKY/WX    TMP DP  RH WIND       PRES   REMARKS
NEW YORK CITY  LGT RAIN  43  38  82 VRB6      29.73R                  
PHILADELPHIA   CLOUDY    46  40  79 N13       29.72R                  
PITTSBURGH     CLOUDY    35  33  92 W5        29.86F                  
ROANOKE        LGT RAIN  49  44  83 NW12      29.80R                  
RICHMOND       CLOUDY    56  46  69 N20G28    29.72R                  
RALEIGH        CLOUDY    65  57  75 SW12      29.70F                  
$$
ANZ530>537-270700-
MARINE OBSERVATIONS
  
STATION/POSITION TIME  TEMP    WIND        PRES
                       AIR SEA DIR/SP/G
                 (UTC) (F)     (DEG/KT/KT) (MB)
THOMAS PT LIGHT  0600                        N/A
BALT KEY BRIDGE  0500   49     310/ 13/ 16 1007.3R
COVE POINT       0500   47      10/ 16/ 19 1006.4R
LEWISETTA        0500   54 44              1006.5R
SOLOMONS ISLAND  0500      44                N/A
PINEY POINT      0500          350/ 16/ 18   N/A
$$